Las Vegas, NM

11:20 AM MDT on May 27, 2017 (GMT -0600)
Las Vegas Municipal

Weather History for KLVS - October, 2013

Change the Weather History Date:

Thursday, October 3, 2013

  Actual Average Record
Temperature  
Mean Temperature 60 °F -  
Max Temperature 73 °F 71 °F 84 °F (2000)
Min Temperature 48 °F 40 °F 28 °F (1971)
Degree Days  
Heating Degree Days 5    
Growing Degree Days 10 (Base 50)    
Moisture  
Dew Point 23 °F    
Average Humidity 27    
Maximum Humidity 41    
Minimum Humidity 11    
Precipitation  
Precipitation 0.00 in - - ()
Sea Level Pressure  
Sea Level Pressure 29.70 in    
Wind  
Wind Speed 12 mph (SSW)    
Max Wind Speed 29 mph    
Max Gust Speed 38 mph    
Visibility 10 miles    
Events      
Averages and records for this station are not official NWS values.
T = Trace of Precipitation, MM = Missing Value Source: NWS Daily Summary

Daily Weather History Graph

Daily Weather History Graph

Search for Another Location

Airport or City:

Trip Planner

Search our weather history database for the weather conditions in past years. The results will help you decide how hot, cold, wet, or windy it might be!

Date:

Astronomy

Oct. 03, 2013 Rise Set
Actual Time 6:57 AM MDT 6:41 PM MDT
Civil Twilight 6:31 AM MDT 7:06 PM MDT
Nautical Twilight 6:02 AM MDT 7:35 PM MDT
Astronomical Twilight 5:32 AM MDT 8:05 PM MDT
Moon 5:35 AM MDT (10/3) 5:50 PM MDT (10/3)
Length of Visible Light 12h 34m
Length of Day
11h 43m
Waning Crescent, 2% of the Moon is Illuminated
Oct 3
Waning Crescent
Oct 4
New
Oct 11
First Quarter
Oct 18
Full
Oct 26
Last Quarter

Hourly Weather History & Observations

Time (MDT) Temp. Dew Point Humidity Pressure Visibility Wind Dir Wind Speed Gust Speed Precip Events Conditions
12:53 AM 53.1 °F 21.9 °F 30% 29.75 in 10.0 mi SW 12.7 mph - N/A   Clear
1:53 AM 51.1 °F 23.0 °F 33% 29.75 in 10.0 mi SSW 9.2 mph - N/A   Clear
2:53 AM 50.0 °F 24.1 °F 36% 29.73 in 10.0 mi South 10.4 mph - N/A   Clear
3:53 AM 48.0 °F 25.0 °F 41% 29.73 in 10.0 mi South 9.2 mph - N/A   Clear
4:53 AM 52.0 °F 25.0 °F 35% 29.72 in 10.0 mi South 5.8 mph - N/A   Clear
5:53 AM 50.0 °F 25.0 °F 38% 29.74 in 10.0 mi South 5.8 mph - N/A   Clear
6:53 AM 50.0 °F 24.1 °F 36% 29.76 in 10.0 mi Calm Calm - N/A   Clear
7:53 AM 52.0 °F 27.0 °F 38% 29.77 in 10.0 mi South 9.2 mph - N/A   Clear
8:53 AM 59.0 °F 28.0 °F 31% 29.74 in 10.0 mi South 9.2 mph - N/A   Clear
9:53 AM 66.0 °F 28.0 °F 24% 29.73 in 10.0 mi SW 15.0 mph - N/A   Clear
10:53 AM 69.1 °F 24.1 °F 18% 29.71 in 10.0 mi WSW 12.7 mph 24.2 mph N/A   Clear
11:53 AM 70.0 °F 21.9 °F 16% 29.68 in 10.0 mi SW 20.7 mph 28.8 mph N/A   Clear
12:53 PM 72.0 °F 19.0 °F 13% 29.66 in 10.0 mi SW 20.7 mph 27.6 mph N/A   Clear
1:53 PM 72.0 °F 16.0 °F 12% 29.64 in 10.0 mi WSW 20.7 mph 31.1 mph N/A   Clear
2:53 PM 71.1 °F 12.9 °F 11% 29.63 in 10.0 mi WSW 28.8 mph 38.0 mph N/A   Clear
3:53 PM 70.0 °F 12.9 °F 11% 29.65 in 10.0 mi WSW 26.5 mph 38.0 mph N/A   Clear
4:53 PM 69.1 °F 19.9 °F 15% 29.62 in 10.0 mi WSW 25.3 mph 33.4 mph N/A   Clear
5:53 PM 66.0 °F 23.0 °F 20% 29.65 in 10.0 mi SW 15.0 mph 26.5 mph N/A   Clear
6:53 PM 60.1 °F 23.0 °F 24% 29.69 in 10.0 mi SSW 8.1 mph - N/A   Clear
7:53 PM 54.0 °F 24.1 °F 31% 29.71 in 10.0 mi South 11.5 mph - N/A   Clear
8:53 PM 55.9 °F 24.1 °F 29% 29.68 in 10.0 mi South 11.5 mph - N/A   Clear
10:53 PM 51.1 °F 27.0 °F 39% 29.65 in 10.0 mi South 10.4 mph - N/A   Clear
11:53 PM 53.1 °F 26.1 °F 35% 29.62 in 10.0 mi SSW 13.8 mph - N/A   Clear